Weather History for EHGG - July, 2013

Change the Weather History Date:

Monday, July 8, 2013

  Actual Average Record
Temperature  
Mean Temperature 62 °F -  
Max Temperature 72 °F 69 °F 80 °F (2010)
Min Temperature 52 °F 52 °F 42 °F (1996)
Degree Days  
Heating Degree Days 3    
Growing Degree Days 12 (Base 50)    
Moisture  
Dew Point 55 °F    
Average Humidity 78    
Maximum Humidity 100    
Minimum Humidity 41    
Precipitation  
Precipitation 0.00 in 0.10 in - ()
Sea Level Pressure  
Sea Level Pressure 30.49 in    
Wind  
Wind Speed 7 mph ()    
Max Wind Speed 13 mph    
Max Gust Speed -    
Visibility 6.9 miles    
Events      
Averages and records for this station are not official NWS values.
T = Trace of Precipitation, MM = Missing Value Source: Averaged Metar Reports

Daily Weather History Graph

Daily Weather History Graph

Search for Another Location

Airport or City:

Trip Planner

Search our weather history database for the weather conditions in past years. The results will help you decide how hot, cold, wet, or windy it might be!

Date:

Astronomy

Jul. 08, 2013 Rise Set
Actual Time 5:17 AM CEST 9:59 PM CEST
Civil Twilight 4:27 AM CEST 10:48 PM CEST
Nautical Twilight 3:07 AM CEST 12:08 AM CEST
Astronomical Twilight Sun does not rise Sun does not rise
Moon 5:45 AM CEST (7/8) 9:34 PM CEST (7/8)
Length of Visible Light 18h 20m
Length of Day
16h 41m
New Moon, 0% of the Moon is Illuminated
Jul 8
New Moon
Jul 16
First Quarter
Jul 22
Full
Jul 29
Last Quarter
Aug 6
New

Hourly Weather History & Observations

Time (CEST) Temp. Dew Point Humidity Pressure Visibility Wind Dir Wind Speed Gust Speed Precip Events Conditions
12:25 AM 57.2 °F 55.4 °F 94% 30.51 in 6.2 mi NNE 5.8 mph - N/A   Unknown
12:55 AM 57.2 °F 55.4 °F 94% 30.51 in 6.2 mi NNE 5.8 mph - N/A   Unknown
1:25 AM 55.4 °F 53.6 °F 94% 30.51 in 6.2 mi Variable 2.3 mph - N/A   Unknown
1:55 AM 55.4 °F 55.4 °F 100% 30.51 in 6.2 mi NNE 3.5 mph - N/A   Unknown
2:00 AM 56 °F 55 °F 97% 30.51 in 10 mi North 4.5 mph - -   Partly Cloudy
2:25 AM 55.4 °F 55.4 °F 100% 30.51 in 6.2 mi North 3.5 mph - N/A   Unknown
2:55 AM 55.4 °F 55.4 °F 100% 30.51 in 6.2 mi North 4.6 mph - N/A   Unknown
3:25 AM 55.4 °F 55.4 °F 100% 30.51 in 5.6 mi North 5.8 mph - N/A   Unknown
3:55 AM 55.4 °F 55.4 °F 100% 30.51 in 6.2 mi NNE 3.5 mph - N/A   Unknown
4:25 AM 55.4 °F 55.4 °F 100% 30.51 in 6.2 mi NNE 3.5 mph - N/A   Unknown
4:55 AM 55.4 °F 55.4 °F 100% 30.51 in 6.2 mi North 4.6 mph - N/A   Unknown
5:00 AM 54 °F 54 °F 100% 30.52 in 7 mi NNE 2.2 mph - -   Scattered Clouds
5:25 AM 53.6 °F 51.8 °F 94% 30.51 in 4.3 mi North 3.5 mph - N/A   Unknown
5:55 AM 55.4 °F 55.4 °F 100% 30.51 in 5.6 mi North 4.6 mph - N/A   Unknown
6:25 AM 55.4 °F 55.4 °F 100% 30.51 in 6.2 mi North 4.6 mph - N/A   Unknown
6:55 AM 57.2 °F 55.4 °F 94% 30.48 in 6.2 mi NNE 4.6 mph - N/A   Unknown
7:25 AM 59.0 °F 57.2 °F 94% 30.48 in 6.2 mi NNE 4.6 mph - N/A   Unknown
7:55 AM 60.8 °F 59.0 °F 94% 30.48 in 6.2 mi NNE 4.6 mph - N/A   Unknown
8:00 AM 61 °F 58 °F 88% 30.51 in 10 mi NNE 6.7 mph - -   Partly Cloudy
8:25 AM 62.6 °F 59.0 °F 88% 30.51 in 6.2 mi NNE 9.2 mph - N/A   Unknown
8:55 AM 64.4 °F 59.0 °F 83% 30.51 in 6.2 mi NNE 9.2 mph - N/A   Unknown
9:25 AM 64.4 °F 59.0 °F 83% 30.51 in 6.2 mi NNE 9.2 mph - N/A   Partly Cloudy
9:55 AM 64.4 °F 59.0 °F 83% 30.51 in 6.2 mi NNE 9.2 mph - N/A   Scattered Clouds
10:25 AM 66.2 °F 59.0 °F 78% 30.51 in 6.2 mi NNE 8.1 mph - N/A   Partly Cloudy
10:55 AM 68.0 °F 59.0 °F 73% 30.51 in 6.2 mi NNE 8.1 mph - N/A   Unknown
11:00 AM 67 °F 59 °F 67% 30.53 in 13 mi North 8.9 mph - -  
11:25 AM 68.0 °F 57.2 °F 68% 30.51 in 6.2 mi NNE 9.2 mph - N/A   Unknown
11:55 AM 69.8 °F 55.4 °F 60% 30.51 in 6.2 mi NNE 9.2 mph - N/A   Partly Cloudy
12:25 PM 69.8 °F 57.2 °F 64% 30.51 in 6.2 mi NE 10.4 mph - N/A   Unknown
12:55 PM 69.8 °F 59.0 °F 68% 30.51 in 6.2 mi NNE 10.4 mph - N/A   Partly Cloudy
1:25 PM 69.8 °F 60.8 °F 73% 30.51 in 6.2 mi NNE 11.5 mph - N/A   Unknown
1:55 PM 71.6 °F 59.0 °F 64% 30.48 in 6.2 mi NNE 12.7 mph - N/A   Unknown
2:00 PM 70 °F 58 °F 58% 30.51 in 16 mi NNE 11.2 mph - -   Partly Cloudy
2:25 PM 71.6 °F 59.0 °F 64% 30.48 in 6.2 mi NNE 12.7 mph - N/A   Unknown
2:55 PM 71.6 °F 57.2 °F 60% 30.48 in 6.2 mi NNE 12.7 mph - N/A   Unknown
3:25 PM 71.6 °F 57.2 °F 60% 30.48 in 6.2 mi NNE 11.5 mph - N/A   Unknown
3:55 PM 69.8 °F 55.4 °F 60% 30.48 in 6.2 mi North 12.7 mph - N/A   Unknown
4:25 PM 69.8 °F 55.4 °F 60% 30.48 in 6.2 mi NNE 12.7 mph - N/A   Unknown
4:55 PM 69.8 °F 51.8 °F 53% 30.48 in 6.2 mi NNE 11.5 mph - N/A   Unknown
5:00 PM 69 °F 51 °F 41% 30.49 in 15 mi NNE 13.4 mph - -  
5:25 PM 68.0 °F 50.0 °F 52% 30.48 in 6.2 mi North 12.7 mph - N/A   Unknown
5:55 PM 69.8 °F 50.0 °F 49% 30.48 in 6.2 mi NNE 11.5 mph - N/A   Unknown
6:25 PM 68.0 °F 50.0 °F 52% 30.45 in 6.2 mi North 12.7 mph - N/A   Unknown
6:55 PM 68.0 °F 48.2 °F 49% 30.45 in 6.2 mi North 12.7 mph - N/A   Unknown
7:25 PM 66.2 °F 48.2 °F 52% 30.45 in 6.2 mi NNE 11.5 mph - N/A   Unknown
7:55 PM 66.2 °F 51.8 °F 60% 30.45 in 6.2 mi NNE 10.4 mph - N/A   Unknown
8:00 PM 65 °F 52 °F 54% 30.47 in 15 mi NNE 11.2 mph - -   Partly Cloudy
8:25 PM 64.4 °F 53.6 °F 68% 30.45 in 6.2 mi North 9.2 mph - N/A   Unknown
8:55 PM 62.6 °F 53.6 °F 72% 30.45 in 6.2 mi North 8.1 mph - N/A   Unknown
9:25 PM 60.8 °F 53.6 °F 77% 30.45 in 6.2 mi North 8.1 mph - N/A   Unknown
9:55 PM 59.0 °F 55.4 °F 88% 30.45 in 6.2 mi NNE 10.4 mph - N/A   Unknown
10:25 PM 59.0 °F 55.4 °F 88% 30.45 in 6.2 mi North 8.1 mph - N/A   Unknown
10:55 PM 57.2 °F 55.4 °F 94% 30.45 in 6.2 mi North 8.1 mph - N/A   Unknown
11:00 PM 58 °F 55 °F 86% 30.46 in 7 mi North 8.9 mph - -  
11:25 PM 57.2 °F 55.4 °F 94% 30.45 in 6.2 mi North 8.1 mph - N/A   Unknown
11:55 PM 57.2 °F 55.4 °F 94% 30.45 in 6.2 mi NNE 6.9 mph - N/A   Unknown